EW7168 Weather Reports


Display with metric or nautical units.
time (UTC)temp
F
wind
direction
speed
MPH
gust
MPH
rain 1hr
in
rain 24hr
in
rain mn
in
humidity
%
barometer
mb
20190822161702 72 228 0.0 3.0 0.00 0.66 0.00 50 1017.4
20190822160148 71 74 1.0 4.0 0.00 0.66 0.00 52 1017.7
20190822154734 70 0 0.0 3.0 0.00 0.66 0.00 54 1017.8
20190822153216 70 50 0.0 3.0 0.00 0.66 0.00 52 1017.8
20190822151740 69 0 0.0 1.0 0.00 0.66 0.00 56 1018.0
20190822150218 68 0 0.0 1.0 0.00 0.66 0.00 55 1018.2
20190822144712 66 40 0.0 2.0 0.00 0.66 0.00 60 1018.4
20190822143207 66 0 0.0 1.0 0.00 0.66 0.00 60 1018.4
20190822141625 65 0 0.0 0.0 0.00 0.66 0.00 62 1018.3
20190822140155 63 0 0.0 0.0 0.00 0.66 0.00 66 1018.7
20190822134715 62 0 0.0 0.0 0.00 0.66 0.00 67 1018.8
20190822133149 60 0 0.0 1.0 0.00 0.66 0.00 71 1019.1
20190822131723 58 0 0.0 0.0 0.00 0.66 0.00 75 1019.0
20190822130140 56 0 0.0 1.0 0.00 0.66 0.00 79 1019.1
20190822124654 55 0 0.0 1.0 0.00 0.66 0.00 78 1019.3
20190822123209 55 0 0.0 0.0 0.00 0.66 0.00 80 1019.6
20190822121713 55 0 0.0 3.0 0.00 0.66 0.00 79 1019.5
20190822120206 56 0 0.0 0.0 0.00 0.66 0.00 81 1019.6
20190822114646 56 0 0.0 1.0 0.00 0.66 0.00 80 1019.5
20190822113254 57 0 0.0 0.0 0.00 0.66 0.00 83 1019.8
20190822111711 57 0 0.0 2.0 0.00 0.66 0.00 86 1019.9
20190822110256 57 0 0.0 0.0 0.00 0.66 0.00 90 1019.9
20190822104721 57 0 0.0 0.0 0.00 0.66 0.00 89 1020.1
20190822103148 58 0 0.0 0.0 0.00 0.66 0.00 89 1020.4
20190822101648 58 0 0.0 0.0 0.00 0.66 0.00 88 1020.5
20190822100128 59 0 0.0 0.0 0.00 0.66 0.00 85 1020.3
20190822094636 59 0 0.0 0.0 0.00 0.66 0.00 85 1020.3
20190822093157 59 0 0.0 2.0 0.00 0.66 0.00 83 1020.3
20190822091641 58 0 0.0 2.0 0.00 0.66 0.00 82 1020.4
20190822090324 58 0 0.0 0.0 0.00 0.66 0.00 80 1020.7
20190822084709 58 0 0.0 0.0 0.00 0.66 0.00 80 1020.9
20190822083207 58 0 0.0 1.0 0.00 0.66 0.00 80 1020.9
20190822081632 58 0 0.0 0.0 0.00 0.66 0.00 80 1020.6
20190822080120 58 0 0.0 1.0 0.00 0.66 0.00 81 1020.5
20190822074647 57 0 0.0 2.0 0.00 0.66 0.00 84 1020.8
20190822073112 57 0 0.0 0.0 0.00 0.66 0.00 84 1021.0
20190822071649 58 0 0.0 3.0 0.00 0.66 0.00 83 1021.0
20190822070234 59 0 0.0 0.0 0.00 0.66 0.00 81 1021.0
20190822064626 60 0 0.0 1.0 0.00 0.66 0.00 78 1021.3
20190822063136 61 0 0.0 0.0 0.00 0.66 0.00 75 1021.1
20190822061702 62 0 0.0 3.0 0.00 0.66 0.00 73 1020.8
20190822060140 60 98 0.0 4.0 0.00 0.66 0.00 77 1020.2
20190822054704 59 96 0.0 3.0 0.00 0.66 0.66 83 1020.4
20190822053212 59 0 0.0 0.0 0.00 0.66 0.66 80 1020.9
20190822051753 60 0 0.0 0.0 0.00 0.66 0.66 77 1021.1
20190822050147 62 0 0.0 0.0 0.00 0.66 0.66 77 1021.1
20190822044657 63 0 0.0 0.0 0.00 0.66 0.66 73 1021.0
20190822043138 64 0 0.0 2.0 0.00 0.66 0.66 68 1020.9
20190822041720 65 0 0.0 4.0 0.00 0.66 0.66 66 1020.9
20190822040222 66 254 3.0 10.0 0.00 0.66 0.66 66 1021.3
20190822034654 66 246 3.0 9.0 0.00 0.66 0.66 67 1021.7
20190822033203 63 198 2.0 10.0 0.00 0.66 0.66 77 1022.3
20190822031635 63 0 0.0 4.0 0.01 0.66 0.66 81 1022.2
20190822030145 62 161 1.0 9.0 0.02 0.66 0.66 82 1022.8
20190822024647 62 0 0.0 5.0 0.02 0.66 0.66 85 1023.2
20190822023140 61 223 2.0 8.0 0.02 0.66 0.66 85 1023.3
20190822021739 61 0 0.0 1.0 0.02 0.65 0.65 85 1022.5
20190822020137 61 0 0.0 11.0 0.03 0.64 0.64 82 1022.6
20190822014708 61 231 0.0 10.0 0.16 0.64 0.64 82 1022.1
20190822013205 60 30 3.0 12.0 0.54 0.64 0.64 83 1021.9
20190822011705 61 92 8.0 27.0 0.63 0.63 0.63 80 1022.1
20190822010158 60 50 3.0 15.0 0.61 0.61 0.61 81 1021.7
20190822004701 63 360 5.0 14.0 0.47 0.47 0.47 83 1023.2
20190822003103 72 265 3.0 8.0 0.10 0.10 0.10 67 1022.0
20190822001718 76 0 0.0 2.0 0.00 0.00 0.00 54 1020.8
20190822000158 77 0 0.0 4.0 0.00 0.00 0.00 52 1020.9
20190821234659 77 0 0.0 4.0 0.00 0.00 0.00 51 1021.4
20190821233151 78 0 0.0 3.0 0.00 0.00 0.00 50 1021.2
20190821231642 78 0 1.0 4.0 0.00 0.00 0.00 52 1021.2
20190821230117 77 0 0.0 4.0 0.00 0.00 0.00 53 1021.0
20190821224708 77 0 0.0 4.0 0.00 0.00 0.00 51 1021.3
20190821223144 78 0 0.0 2.0 0.00 0.00 0.00 51 1021.1
20190821221706 78 0 0.0 0.0 0.00 0.00 0.00 51 1020.8
20190821214648 78 0 0.0 0.0 0.00 0.00 0.00 52 1021.3
20190821213202 79 0 0.0 1.0 0.00 0.00 0.00 50 1021.5
20190821211709 79 0 0.0 2.0 0.00 0.00 0.00 48 1021.7
20190821210150 79 0 0.0 4.0 0.00 0.00 0.00 49 1022.1
20190821204654 79 47 1.0 8.0 0.00 0.00 0.00 49 1022.1
20190821203236 79 0 0.0 4.0 0.00 0.00 0.00 48 1022.2
20190821201634 79 0 0.0 5.0 0.00 0.00 0.00 50 1022.3
20190821200126 78 0 1.0 5.0 0.00 0.00 0.00 51 1022.5
20190821194725 78 45 1.0 5.0 0.00 0.00 0.00 53 1022.4
20190821193244 78 30 2.0 9.0 0.00 0.00 0.00 51 1022.7
20190821191704 78 0 0.0 8.0 0.00 0.00 0.00 51 1022.7
20190821190148 79 0 0.0 3.0 0.00 0.00 0.00 50 1022.9
20190821184634 79 101 3.0 9.0 0.00 0.00 0.00 49 1023.1
20190821183133 78 51 4.0 9.0 0.00 0.00 0.00 50 1023.4
20190821181600 78 49 1.0 10.0 0.00 0.00 0.00 52 1023.6
20190821180135 77 244 1.0 6.0 0.00 0.00 0.00 54 1023.9
20190821174620 76 0 1.0 4.0 0.00 0.00 0.00 58 1024.2
20190821173242 75 106 0.0 4.0 0.00 0.00 0.00 58 1024.4
20190821171728 75 221 0.0 4.0 0.00 0.00 0.00 59 1024.5
20190821170239 73 290 1.0 4.0 0.00 0.00 0.00 61 1024.6
20190821164625 74 333 0.0 4.0 0.00 0.00 0.00 62 1024.6
20190821163437 74 0 0.0 6.0 0.00 0.00 0.00 60 1024.7